Preview of NWS' New Version of Forecast
This preview is not operational and should not be used for support decisions.

Regional Weather Roundup (RWR)

Issued by Midland/Odessa (MAF)

                            
000
ASUS44 KMAF 201010
RWRMAF
MIDLAND AREA WEATHER ROUNDUP
NATIONAL WEATHER SERVICE MIDLAND TX
400 AM CST WED FEB 20 2019

...IN SOUTHWEST TEXAS AND SOUTHEAST NEW MEXICO...
  
CITY           SKY/WX    TMP DP  RH WIND       PRES   REMARKS
ALPINE         PTCLDY    37  15  40 NW3       30.00F                  
ANDREWS        FAIR      28  16  59 SW7       29.91S WCI  21          
ARTESIA        CLEAR     30  10  43 W10       29.89  WCI  21          
BIG SPRING     CLOUDY    25  22  91 S6        29.95S WCI  18          
CARLSBAD       CLEAR     35  11  36 CALM      29.89F                  
DRYDEN           N/A     31  24  75 CALM      29.96F                  
FORT STOCKTON  CLOUDY    33  21  61 SW6       29.97S WCI  28          
GUAD PASS      CLEAR     28   9  44 SW25G33   29.88R WCI  13          
HOBBS          CLEAR     28  14  54 SW7       29.89S WCI  21          
LAMESA         NOT AVBL                                               
MARFA          CLOUDY    27  15  61 E5        29.96F WCI  22          
MIDLAND AIRPK    N/A     32  26  78 SW9       29.93S WCI  24          
MIDLAND INTL   CLEAR     30  23  75 SW9       29.92S WCI  22          
ODESSA         CLEAR     28  20  71 W9        29.92F WCI  19          
PECOS          CLEAR     38  14  37 W16       29.96S WCI  28          
PRESIDIO       FAIR      40  22  48 CALM      30.00S                  
SEMINOLE       CLEAR     22  16  76 SW7       29.93F WCI  14          
SNYDER         CLEAR     23  23 100 SW7       29.91F FOG     WCI  15  
WINK           CLEAR     31  15  52 W5        29.93S WCI  26          
$$
...OTHER STATIONS IN TEXAS...
  
CITY           SKY/WX    TMP DP  RH WIND       PRES   REMARKS
ABILENE        CLOUDY    31  30  96 W7        29.93F WCI  24          
AMARILLO       CLEAR     27  20  75 W26G32    29.71F WCI  12          
AUSTIN         MOCLDY    43  39  86 N6        29.95R WCI  39          
BROWNSVILLE    LGT RAIN  51  51 100 N13G21    29.89R                  
CORPUS CHRISTI DRIZZLE   46  44  93 N16       29.93R WCI  39          
DALLAS FTW     CLOUDY    38  34  85 W16       29.92F WCI  29          
DEL RIO        PTCLDY    37  35  92 CALM      30.01R                  
EL PASO        PTCLDY    36  14  40 VRB3      29.96F                  
HOUSTON INT    CLOUDY    46  46 100 NW8       29.90S                  
LUBBOCK        CLEAR     24  19  81 SW8       29.83F WCI  15          
SAN ANGELO     CLEAR     31  27  85 W12       29.94F WCI  22          
SAN ANTONIO    MOCLDY    40  36  86 W3        29.95R                  
WACO           CLOUDY    39  36  89 NW13      29.94S WCI  31          
WICHITA FALLS  CLOUDY    29  28  96 SW8       29.80F FOG     WCI  21  
$$
...OTHER LOCATIONS IN NEW MEXICO...
  
CITY           SKY/WX    TMP DP  RH WIND       PRES   REMARKS
ALAMOGORDO     CLEAR     27   9  46 MISG      29.95                   
ALBUQUERQUE    CLOUDY    26  15  63 W9        29.85S WCI  17          
CANNON AFB     CLEAR     21  16  79 W17       29.80F WCI   7          
CLOVIS         CLEAR     22  18  85 W21       29.79F WCI   6          
HOLLOMAN AFB   NOT AVBL                                               
ROSWELL        CLEAR     26  15  63 W10       29.85F WCI  16          
RUIDOSO        NOT AVBL                                               
SANTA FE       MOCLDY    17  14  88 W7        29.78S WCI   8          
TRUTH OR CONSE CLEAR     29  10  45 NW5       29.91F WCI  24          
TUCUMCARI      CLEAR     31  15  52 W26       29.74R WCI  17          
$$